Time,TemperatureF,DewpointF,PressureIn,WindDirection,WindDirectionDegrees,WindSpeedMPH,WindSpeedGustMPH,Humidity,HourlyPrecipIn,Conditions,Clouds,dailyrainin,SoftwareType,DateUTC
2013-02-16 00:03:00,46.8,39.6,30.15,NNW,338,0.0,0.0,76,0.00,,,0.00,WUHU216HW,2013-02-16 08:03:00,
2013-02-16 00:08:00,46.6,39.5,30.15,NNW,338,0.2,0.4,76,0.00,,,0.00,WUHU216HW,2013-02-16 08:08:00,
2013-02-16 00:13:00,46.4,39.3,30.15,NNW,338,0.0,0.4,76,0.00,,,0.00,WUHU216HW,2013-02-16 08:13:00,
2013-02-16 00:18:00,46.3,39.5,30.15,NNW,338,0.0,0.4,77,0.00,,,0.00,WUHU216HW,2013-02-16 08:18:00,
2013-02-16 00:23:00,46.1,39.6,30.15,NNW,338,0.4,0.9,78,0.00,,,0.00,WUHU216HW,2013-02-16 08:23:00,
2013-02-16 00:28:00,45.9,39.4,30.15,NNW,338,0.0,0.9,78,0.00,,,0.00,WUHU216HW,2013-02-16 08:28:00,
2013-02-16 00:33:00,45.7,39.2,30.15,NNW,338,0.0,0.4,78,0.00,,,0.00,WUHU216HW,2013-02-16 08:33:00,
2013-02-16 00:38:00,45.7,39.2,30.16,NNW,338,0.0,0.0,78,0.00,,,0.00,WUHU216HW,2013-02-16 08:38:00,
2013-02-16 00:43:00,45.7,39.0,30.16,NNW,338,0.4,0.4,77,0.00,,,0.00,WUHU216HW,2013-02-16 08:43:00,
2013-02-16 00:48:00,45.5,38.8,30.15,NNW,338,0.2,0.4,77,0.00,,,0.00,WUHU216HW,2013-02-16 08:48:00,
2013-02-16 00:53:00,45.5,39.1,30.15,NNW,338,0.0,0.4,78,0.00,,,0.00,WUHU216HW,2013-02-16 08:53:00,
2013-02-16 00:58:00,45.4,39.2,30.15,NNW,338,0.2,0.9,79,0.00,,,0.00,WUHU216HW,2013-02-16 08:58:00,
2013-02-16 01:03:00,45.2,39.1,30.15,NNW,338,0.0,0.9,79,0.00,,,0.00,WUHU216HW,2013-02-16 09:03:00,
2013-02-16 01:08:00,45.0,39.2,30.15,NNW,338,0.4,0.7,80,0.00,,,0.00,WUHU216HW,2013-02-16 09:08:00,
2013-02-16 01:13:00,44.8,39.3,30.15,NNW,338,0.4,0.7,81,0.00,,,0.00,WUHU216HW,2013-02-16 09:13:00,
2013-02-16 01:18:00,44.6,39.2,30.15,NNW,338,0.0,0.4,81,0.00,,,0.00,WUHU216HW,2013-02-16 09:18:00,
2013-02-16 01:23:00,44.6,39.2,30.15,NNW,338,0.0,0.4,81,0.00,,,0.00,WUHU216HW,2013-02-16 09:23:00,
2013-02-16 01:28:00,44.6,39.2,30.15,NNW,338,0.7,0.7,81,0.00,,,0.00,WUHU216HW,2013-02-16 09:28:00,
2013-02-16 01:33:00,44.6,39.2,30.15,NNW,338,0.0,0.7,81,0.00,,,0.00,WUHU216HW,2013-02-16 09:33:00,
2013-02-16 01:38:00,44.6,39.2,30.15,NNW,338,0.0,0.4,81,0.00,,,0.00,WUHU216HW,2013-02-16 09:38:00,
2013-02-16 01:43:00,44.3,38.8,30.15,NNW,338,0.4,0.7,81,0.00,,,0.00,WUHU216HW,2013-02-16 09:43:00,
2013-02-16 01:48:00,44.3,38.8,30.15,NNW,338,0.4,0.7,81,0.00,,,0.00,WUHU216HW,2013-02-16 09:48:00,
2013-02-16 01:53:00,44.1,38.6,30.15,NNW,338,0.2,0.4,81,0.00,,,0.00,WUHU216HW,2013-02-16 09:53:00,
2013-02-16 01:58:00,43.9,38.4,30.15,NNW,338,0.4,0.7,81,0.00,,,0.00,WUHU216HW,2013-02-16 09:58:00,
2013-02-16 02:03:00,43.9,38.4,30.15,NNW,338,0.0,0.9,81,0.00,,,0.00,WUHU216HW,2013-02-16 10:03:00,
2013-02-16 02:08:00,43.9,38.4,30.15,NNW,338,0.0,0.9,81,0.00,,,0.00,WUHU216HW,2013-02-16 10:08:00,
2013-02-16 02:13:00,43.9,38.4,30.15,NNE,23,0.7,1.3,81,0.00,,,0.00,WUHU216HW,2013-02-16 10:13:00,
2013-02-16 02:18:00,43.6,38.1,30.15,NNE,23,0.4,1.3,81,0.00,,,0.00,WUHU216HW,2013-02-16 10:18:00,
2013-02-16 02:23:00,43.6,38.1,30.14,NNE,23,0.2,0.7,81,0.00,,,0.00,WUHU216HW,2013-02-16 10:23:00,
2013-02-16 02:28:00,43.6,38.1,30.14,NNE,23,0.2,0.7,81,0.00,,,0.00,WUHU216HW,2013-02-16 10:28:00,
2013-02-16 02:33:00,43.6,38.1,30.14,NNE,23,0.2,0.7,81,0.00,,,0.00,WUHU216HW,2013-02-16 10:33:00,
2013-02-16 02:38:00,43.6,38.1,30.14,NNE,23,0.4,0.9,81,0.00,,,0.00,WUHU216HW,2013-02-16 10:38:00,
2013-02-16 02:43:00,43.6,38.1,30.14,NNE,23,0.0,0.9,81,0.00,,,0.00,WUHU216HW,2013-02-16 10:43:00,
2013-02-16 02:48:00,43.6,38.4,30.13,NNE,23,0.0,0.4,82,0.00,,,0.00,WUHU216HW,2013-02-16 10:48:00,
2013-02-16 02:53:00,43.6,38.4,30.14,NNE,23,0.0,0.4,82,0.00,,,0.00,WUHU216HW,2013-02-16 10:53:00,
2013-02-16 02:58:00,43.6,38.4,30.13,NNE,23,0.4,0.4,82,0.00,,,0.00,WUHU216HW,2013-02-16 10:58:00,
2013-02-16 03:03:00,43.6,38.7,30.13,NNE,23,0.7,0.7,83,0.00,,,0.00,WUHU216HW,2013-02-16 11:03:00,
2013-02-16 03:08:00,43.6,38.7,30.13,NNE,23,0.7,1.1,83,0.00,,,0.00,WUHU216HW,2013-02-16 11:08:00,
2013-02-16 03:13:00,43.6,38.7,30.12,NNE,23,0.0,1.1,83,0.00,,,0.00,WUHU216HW,2013-02-16 11:13:00,
2013-02-16 03:18:00,43.7,38.9,30.12,NNE,23,0.4,0.7,83,0.00,,,0.00,WUHU216HW,2013-02-16 11:18:00,
2013-02-16 03:23:00,43.6,38.7,30.12,NNE,23,0.4,0.9,83,0.00,,,0.00,WUHU216HW,2013-02-16 11:23:00,
2013-02-16 03:28:00,43.6,38.7,30.12,NNE,23,0.4,0.9,83,0.00,,,0.00,WUHU216HW,2013-02-16 11:28:00,
2013-02-16 03:33:00,43.4,38.5,30.12,NNE,23,0.4,0.7,83,0.00,,,0.00,WUHU216HW,2013-02-16 11:33:00,
2013-02-16 03:38:00,43.2,38.3,30.12,NNE,23,0.7,1.1,83,0.00,,,0.00,WUHU216HW,2013-02-16 11:38:00,
2013-02-16 03:43:00,43.2,38.3,30.12,NNE,23,0.4,1.1,83,0.00,,,0.00,WUHU216HW,2013-02-16 11:43:00,
2013-02-16 03:48:00,43.2,38.3,30.12,NNE,23,0.7,1.3,83,0.00,,,0.00,WUHU216HW,2013-02-16 11:48:00,
2013-02-16 03:53:00,43.2,38.3,30.12,NE,45,0.4,1.3,83,0.00,,,0.00,WUHU216HW,2013-02-16 11:53:00,
2013-02-16 03:58:00,43.2,38.1,30.11,North,0,0.0,1.1,82,0.00,,,0.00,WUHU216HW,2013-02-16 11:58:00,
2013-02-16 04:03:00,43.2,38.1,30.11,North,0,0.0,0.4,82,0.00,,,0.00,WUHU216HW,2013-02-16 12:03:00,
2013-02-16 04:08:00,43.2,38.1,30.12,North,0,0.0,0.2,82,0.00,,,0.00,WUHU216HW,2013-02-16 12:08:00,
2013-02-16 04:13:00,43.2,37.7,30.12,North,0,0.0,0.2,81,0.00,,,0.00,WUHU216HW,2013-02-16 12:13:00,
2013-02-16 04:18:00,43.2,37.7,30.11,North,0,0.4,0.7,81,0.00,,,0.00,WUHU216HW,2013-02-16 12:18:00,
2013-02-16 04:23:00,43.0,37.5,30.11,North,0,0.0,0.7,81,0.00,,,0.00,WUHU216HW,2013-02-16 12:23:00,
2013-02-16 04:28:00,42.8,37.4,30.11,NNE,23,1.6,1.6,81,0.00,,,0.00,WUHU216HW,2013-02-16 12:28:00,
2013-02-16 04:33:00,42.8,37.4,30.11,NNE,23,0.0,1.6,81,0.00,,,0.00,WUHU216HW,2013-02-16 12:33:00,
2013-02-16 04:38:00,42.8,37.7,30.11,NNE,23,0.9,1.6,82,0.00,,,0.00,WUHU216HW,2013-02-16 12:38:00,
2013-02-16 04:43:00,42.8,37.7,30.11,NNE,23,0.0,1.1,82,0.00,,,0.00,WUHU216HW,2013-02-16 12:43:00,
2013-02-16 04:48:00,42.8,37.7,30.11,NNE,23,1.3,1.3,82,0.00,,,0.00,WUHU216HW,2013-02-16 12:48:00,
2013-02-16 04:53:00,42.8,37.7,30.10,NNE,23,0.4,1.3,82,0.00,,,0.00,WUHU216HW,2013-02-16 12:53:00,
2013-02-16 04:58:00,42.8,37.7,30.10,NNE,23,0.0,1.3,82,0.00,,,0.00,WUHU216HW,2013-02-16 12:58:00,
2013-02-16 05:03:00,42.8,37.7,30.10,NNE,23,0.0,0.7,82,0.00,,,0.00,WUHU216HW,2013-02-16 13:03:00,
2013-02-16 05:08:00,42.8,37.7,30.10,NNE,23,0.4,0.4,82,0.00,,,0.00,WUHU216HW,2013-02-16 13:08:00,
2013-02-16 05:13:00,42.8,37.4,30.10,NNE,23,0.4,0.4,81,0.00,,,0.00,WUHU216HW,2013-02-16 13:13:00,
2013-02-16 05:18:00,42.7,37.2,30.10,NNE,23,0.4,0.7,81,0.00,,,0.00,WUHU216HW,2013-02-16 13:18:00,
2013-02-16 05:23:00,42.5,37.0,30.10,NNE,23,0.0,0.7,81,0.00,,,0.00,WUHU216HW,2013-02-16 13:23:00,
2013-02-16 05:28:00,42.5,37.0,30.10,NNE,23,0.4,0.7,81,0.00,,,0.00,WUHU216HW,2013-02-16 13:28:00,
2013-02-16 05:33:00,42.3,36.8,30.10,NNE,23,0.4,0.9,81,0.00,,,0.00,WUHU216HW,2013-02-16 13:33:00,
2013-02-16 05:38:00,42.3,36.8,30.10,NNE,23,0.0,0.9,81,0.00,,,0.00,WUHU216HW,2013-02-16 13:38:00,
2013-02-16 05:43:00,42.3,36.8,30.10,NNE,23,0.0,0.7,81,0.00,,,0.00,WUHU216HW,2013-02-16 13:43:00,
2013-02-16 05:48:00,42.1,36.6,30.10,NNE,23,0.0,0.7,81,0.00,,,0.00,WUHU216HW,2013-02-16 13:48:00,
2013-02-16 05:53:00,42.1,37.0,30.09,NNE,23,0.4,0.4,82,0.00,,,0.00,WUHU216HW,2013-02-16 13:53:00,
2013-02-16 05:58:00,42.1,36.6,30.10,NE,45,0.7,1.1,81,0.00,,,0.00,WUHU216HW,2013-02-16 13:58:00,
2013-02-16 06:02:00,42.3,36.8,30.09,NE,45,0.0,1.1,81,0.00,,,0.00,WUHU216HW,2013-02-16 14:02:00,
2013-02-16 06:07:00,42.5,37.0,30.09,NNE,23,0.2,1.1,81,0.00,,,0.00,WUHU216HW,2013-02-16 14:07:00,
2013-02-16 06:12:00,42.5,37.0,30.09,NNE,23,0.2,0.4,81,0.00,,,0.00,WUHU216HW,2013-02-16 14:12:00,
2013-02-16 06:17:00,42.7,37.2,30.09,NNE,23,0.0,0.4,81,0.00,,,0.00,WUHU216HW,2013-02-16 14:17:00,
2013-02-16 06:22:00,42.5,37.0,30.09,NNE,23,0.0,0.4,81,0.00,,,0.00,WUHU216HW,2013-02-16 14:22:00,
2013-02-16 06:27:00,42.5,37.0,30.09,NNE,23,0.0,0.2,81,0.00,,,0.00,WUHU216HW,2013-02-16 14:27:00,
2013-02-16 06:32:00,42.5,37.0,30.09,NNE,23,0.0,0.2,81,0.00,,,0.00,WUHU216HW,2013-02-16 14:32:00,
2013-02-16 06:37:00,42.5,37.0,30.09,NNE,23,0.2,0.2,81,0.00,,,0.00,WUHU216HW,2013-02-16 14:37:00,
2013-02-16 06:42:00,42.5,36.7,30.09,NNE,23,0.4,0.4,80,0.00,,,0.00,WUHU216HW,2013-02-16 14:42:00,
2013-02-16 06:47:00,42.3,36.5,30.09,NNE,23,0.0,0.4,80,0.00,,,0.00,WUHU216HW,2013-02-16 14:47:00,
2013-02-16 06:52:00,42.3,36.5,30.09,NNE,23,0.0,0.7,80,0.00,,,0.00,WUHU216HW,2013-02-16 14:52:00,
2013-02-16 06:57:00,42.3,36.5,30.09,NNE,23,0.4,0.7,80,0.00,,,0.00,WUHU216HW,2013-02-16 14:57:00,
2013-02-16 07:02:00,42.3,36.5,30.09,NNE,23,0.0,0.4,80,0.00,,,0.00,WUHU216HW,2013-02-16 15:02:00,
2013-02-16 07:07:00,42.3,36.5,30.09,NNE,23,0.4,0.4,80,0.00,,,0.00,WUHU216HW,2013-02-16 15:07:00,
2013-02-16 07:12:00,42.3,36.5,30.09,NNE,23,0.0,0.7,80,0.00,,,0.00,WUHU216HW,2013-02-16 15:12:00,
2013-02-16 07:17:00,42.3,36.5,30.09,NNE,23,0.0,0.7,80,0.00,,,0.00,WUHU216HW,2013-02-16 15:17:00,
2013-02-16 07:22:00,42.3,36.8,30.09,NNE,23,0.0,0.2,81,0.00,,,0.00,WUHU216HW,2013-02-16 15:22:00,
2013-02-16 07:27:00,42.3,36.8,30.09,NNE,23,0.0,0.4,81,0.00,,,0.00,WUHU216HW,2013-02-16 15:27:00,
2013-02-16 07:32:00,42.3,36.8,30.09,NNE,23,0.0,0.4,81,0.00,,,0.00,WUHU216HW,2013-02-16 15:32:00,
2013-02-16 07:37:00,42.5,37.0,30.09,NNE,23,0.4,0.4,81,0.00,,,0.00,WUHU216HW,2013-02-16 15:37:00,
2013-02-16 07:42:00,42.7,37.5,30.09,NNE,23,0.0,0.4,82,0.00,,,0.00,WUHU216HW,2013-02-16 15:42:00,
2013-02-16 07:47:00,42.8,37.7,30.09,NNE,23,0.0,0.4,82,0.00,,,0.00,WUHU216HW,2013-02-16 15:47:00,
2013-02-16 07:52:00,43.0,37.9,30.09,NNE,23,0.0,0.2,82,0.00,,,0.00,WUHU216HW,2013-02-16 15:52:00,
2013-02-16 07:57:00,43.2,38.1,30.09,NNE,23,0.0,0.2,82,0.00,,,0.00,WUHU216HW,2013-02-16 15:57:00,
2013-02-16 08:02:00,43.4,38.3,30.09,NNE,23,0.0,0.0,82,0.00,,,0.00,WUHU216HW,2013-02-16 16:02:00,
2013-02-16 08:07:00,43.7,38.6,30.09,NNE,23,0.0,0.0,82,0.00,,,0.00,WUHU216HW,2013-02-16 16:07:00,
2013-02-16 08:12:00,43.9,38.8,30.09,NNE,23,0.0,0.0,82,0.00,,,0.00,WUHU216HW,2013-02-16 16:12:00,
2013-02-16 08:17:00,44.3,39.2,30.09,NNE,23,0.0,0.0,82,0.00,,,0.00,WUHU216HW,2013-02-16 16:17:00,
2013-02-16 08:22:00,44.6,39.5,30.09,NNE,23,0.0,0.0,82,0.00,,,0.00,WUHU216HW,2013-02-16 16:22:00,
2013-02-16 08:27:00,45.0,39.9,30.10,NNE,23,0.0,0.0,82,0.00,,,0.00,WUHU216HW,2013-02-16 16:27:00,
2013-02-16 08:32:00,45.2,40.1,30.10,NNE,23,0.0,0.0,82,0.00,,,0.00,WUHU216HW,2013-02-16 16:32:00,
2013-02-16 08:37:00,45.4,40.2,30.10,NNE,23,0.0,0.2,82,0.00,,,0.00,WUHU216HW,2013-02-16 16:37:00,
2013-02-16 08:42:00,45.7,40.6,30.10,NNE,23,0.0,0.2,82,0.00,,,0.00,WUHU216HW,2013-02-16 16:42:00,
2013-02-16 08:47:00,46.1,41.0,30.10,NNE,23,0.4,0.4,82,0.00,,,0.00,WUHU216HW,2013-02-16 16:47:00,
2013-02-16 08:52:00,46.4,41.3,30.10,NNE,23,0.0,0.4,82,0.00,,,0.00,WUHU216HW,2013-02-16 16:52:00,
2013-02-16 08:57:00,46.8,41.3,30.10,NNE,23,0.7,0.7,81,0.00,,,0.00,WUHU216HW,2013-02-16 16:57:00,
2013-02-16 09:02:00,47.2,41.3,30.10,North,0,0.4,0.7,80,0.00,,,0.00,WUHU216HW,2013-02-16 17:02:00,
2013-02-16 09:07:00,47.7,41.9,30.10,North,0,0.2,0.7,80,0.00,,,0.00,WUHU216HW,2013-02-16 17:07:00,
2013-02-16 09:12:00,48.2,41.6,30.10,North,0,0.0,0.4,78,0.00,,,0.00,WUHU216HW,2013-02-16 17:12:00,
2013-02-16 09:17:00,48.6,41.9,30.10,North,0,0.0,0.2,78,0.00,,,0.00,WUHU216HW,2013-02-16 17:17:00,
2013-02-16 09:22:00,49.3,42.0,30.10,North,0,0.2,0.4,76,0.00,,,0.00,WUHU216HW,2013-02-16 17:22:00,
2013-02-16 09:27:00,49.9,41.5,30.09,North,0,0.0,0.4,73,0.00,,,0.00,WUHU216HW,2013-02-16 17:27:00,
2013-02-16 09:32:00,50.6,41.6,30.09,North,0,0.0,0.4,71,0.00,,,0.00,WUHU216HW,2013-02-16 17:32:00,
2013-02-16 09:38:00,51.1,41.3,30.10,North,0,0.0,0.4,69,0.00,,,0.00,WUHU216HW,2013-02-16 17:38:00,
2013-02-16 09:43:00,51.8,41.7,30.10,North,0,0.0,0.4,68,0.00,,,0.00,WUHU216HW,2013-02-16 17:43:00,
2013-02-16 09:48:00,52.4,41.3,30.09,North,0,0.0,0.2,66,0.00,,,0.00,WUHU216HW,2013-02-16 17:48:00,
2013-02-16 09:53:00,53.1,41.6,30.09,NW,315,1.1,1.3,65,0.00,,,0.00,WUHU216HW,2013-02-16 17:53:00,
2013-02-16 09:58:00,53.8,41.5,30.09,West,270,1.6,2.5,63,0.00,,,0.00,WUHU216HW,2013-02-16 17:58:00,
2013-02-16 10:03:00,54.4,41.6,30.09,West,270,0.0,2.5,62,0.00,,,0.00,WUHU216HW,2013-02-16 18:03:00,
2013-02-16 10:08:00,54.9,41.7,30.09,SW,225,0.7,2.2,61,0.00,,,0.00,WUHU216HW,2013-02-16 18:08:00,
2013-02-16 10:13:00,55.4,42.2,30.09,West,270,0.0,2.9,61,0.00,,,0.00,WUHU216HW,2013-02-16 18:13:00,
2013-02-16 10:18:00,56.2,42.9,30.09,West,270,2.0,2.9,61,0.00,,,0.00,WUHU216HW,2013-02-16 18:18:00,
2013-02-16 10:23:00,56.7,43.0,30.09,SW,225,1.3,2.0,60,0.00,,,0.00,WUHU216HW,2013-02-16 18:23:00,
2013-02-16 10:28:00,57.2,43.9,30.08,SSW,203,1.3,2.9,61,0.00,,,0.00,WUHU216HW,2013-02-16 18:28:00,
2013-02-16 10:33:00,58.0,45.0,30.09,SW,225,1.8,2.9,62,0.00,,,0.00,WUHU216HW,2013-02-16 18:33:00,
2013-02-16 10:38:00,58.5,45.1,30.09,WSW,248,1.3,3.1,61,0.00,,,0.00,WUHU216HW,2013-02-16 18:38:00,
2013-02-16 10:43:00,58.9,45.0,30.08,SW,225,1.8,3.1,60,0.00,,,0.00,WUHU216HW,2013-02-16 18:43:00,
2013-02-16 10:48:00,59.2,44.9,30.08,WNW,293,3.4,3.6,59,0.00,,,0.00,WUHU216HW,2013-02-16 18:48:00,
2013-02-16 10:52:00,59.6,45.3,30.08,WNW,293,3.8,3.8,59,0.00,,,0.00,WUHU216HW,2013-02-16 18:52:00,
2013-02-16 10:57:00,59.9,45.1,30.08,West,270,4.0,4.0,58,0.00,,,0.00,WUHU216HW,2013-02-16 18:57:00,
2013-02-16 11:02:00,60.1,45.3,30.08,West,270,2.7,4.0,58,0.00,,,0.00,WUHU216HW,2013-02-16 19:02:00,
2013-02-16 11:07:00,60.1,45.3,30.08,WSW,248,1.8,4.0,58,0.00,,,0.00,WUHU216HW,2013-02-16 19:07:00,
2013-02-16 11:12:00,60.3,45.5,30.08,WSW,248,1.1,3.1,58,0.00,,,0.00,WUHU216HW,2013-02-16 19:12:00,
2013-02-16 11:17:00,60.3,45.0,30.08,West,270,2.9,3.1,57,0.00,,,0.00,WUHU216HW,2013-02-16 19:17:00,
2013-02-16 11:22:00,60.5,45.2,30.08,West,270,1.1,2.9,57,0.00,,,0.00,WUHU216HW,2013-02-16 19:22:00,
2013-02-16 11:27:00,60.5,44.7,30.08,NW,315,1.1,3.1,56,0.00,,,0.00,WUHU216HW,2013-02-16 19:27:00,
2013-02-16 11:32:00,60.7,44.8,30.08,West,270,2.0,3.1,56,0.00,,,0.00,WUHU216HW,2013-02-16 19:32:00,
2013-02-16 11:37:00,60.8,45.0,30.08,WSW,248,1.8,3.1,56,0.00,,,0.00,WUHU216HW,2013-02-16 19:37:00,
2013-02-16 11:42:00,60.8,45.0,30.08,WNW,293,2.7,2.7,56,0.00,,,0.00,WUHU216HW,2013-02-16 19:42:00,
2013-02-16 11:47:00,60.8,45.0,30.08,WNW,293,2.5,3.8,56,0.00,,,0.00,WUHU216HW,2013-02-16 19:47:00,
2013-02-16 11:52:00,60.8,45.0,30.07,West,270,1.6,3.8,56,0.00,,,0.00,WUHU216HW,2013-02-16 19:52:00,
2013-02-16 11:57:00,61.0,45.2,30.07,SW,225,0.9,2.7,56,0.00,,,0.00,WUHU216HW,2013-02-16 19:57:00,
2013-02-16 12:02:00,61.2,45.8,30.07,WNW,293,0.0,1.8,57,0.00,,,0.00,WUHU216HW,2013-02-16 20:02:00,
2013-02-16 12:07:00,61.4,46.0,30.07,SW,225,1.1,2.5,57,0.00,,,0.00,WUHU216HW,2013-02-16 20:07:00,
2013-02-16 12:12:00,61.7,46.4,30.07,West,270,0.9,2.5,57,0.00,,,0.00,WUHU216HW,2013-02-16 20:12:00,
2013-02-16 12:17:00,62.1,46.6,30.06,West,270,0.7,1.8,57,0.00,,,0.00,WUHU216HW,2013-02-16 20:17:00,
2013-02-16 12:22:00,62.5,46.5,30.06,SSW,203,0.7,1.8,56,0.00,,,0.00,WUHU216HW,2013-02-16 20:22:00,
2013-02-16 12:27:00,63.0,47.0,30.05,SW,225,0.9,2.2,56,0.00,,,0.00,WUHU216HW,2013-02-16 20:27:00,
2013-02-16 12:32:00,63.2,46.6,30.05,SSE,158,1.1,2.7,55,0.00,,,0.00,WUHU216HW,2013-02-16 20:32:00,
2013-02-16 12:37:00,63.7,47.2,30.05,SSE,158,1.3,2.7,55,0.00,,,0.00,WUHU216HW,2013-02-16 20:37:00,
2013-02-16 12:42:00,63.9,46.8,30.05,WSW,248,1.8,1.8,54,0.00,,,0.00,WUHU216HW,2013-02-16 20:42:00,
2013-02-16 12:47:00,64.1,46.0,30.04,SE,135,0.2,1.8,52,0.00,,,0.00,WUHU216HW,2013-02-16 20:47:00,
2013-02-16 12:52:00,64.3,46.2,30.04,ESE,113,1.6,1.8,52,0.00,,,0.00,WUHU216HW,2013-02-16 20:52:00,
2013-02-16 12:57:00,64.4,46.4,30.04,SE,135,1.6,1.8,52,0.00,,,0.00,WUHU216HW,2013-02-16 20:57:00,
2013-02-16 13:02:00,64.6,46.0,30.04,SE,135,1.1,1.8,51,0.00,,,0.00,WUHU216HW,2013-02-16 21:02:00,
2013-02-16 13:07:00,64.6,45.5,30.04,ESE,113,0.9,2.5,50,0.00,,,0.00,WUHU216HW,2013-02-16 21:07:00,
2013-02-16 13:12:00,64.8,45.7,30.04,ESE,113,1.6,2.5,50,0.00,,,0.00,WUHU216HW,2013-02-16 21:12:00,
2013-02-16 13:17:00,65.0,45.9,30.03,ESE,113,1.1,1.6,50,0.00,,,0.00,WUHU216HW,2013-02-16 21:17:00,
2013-02-16 13:22:00,65.2,46.5,30.03,SW,225,1.3,1.8,51,0.00,,,0.00,WUHU216HW,2013-02-16 21:22:00,
2013-02-16 13:27:00,65.3,46.3,30.03,SSW,203,2.5,2.5,50,0.00,,,0.00,WUHU216HW,2013-02-16 21:27:00,
2013-02-16 13:32:00,65.7,46.6,30.03,WSW,248,0.2,2.5,50,0.00,,,0.00,WUHU216HW,2013-02-16 21:32:00,
2013-02-16 13:37:00,65.9,46.2,30.03,SSE,158,1.6,2.2,49,0.00,,,0.00,WUHU216HW,2013-02-16 21:37:00,
2013-02-16 13:42:00,66.2,46.5,30.02,SW,225,2.2,2.5,49,0.00,,,0.00,WUHU216HW,2013-02-16 21:42:00,
2013-02-16 13:47:00,66.4,46.7,30.02,SE,135,0.4,2.5,49,0.00,,,0.00,WUHU216HW,2013-02-16 21:47:00,
2013-02-16 13:52:00,66.4,46.2,30.02,SW,225,1.3,2.2,48,0.00,,,0.00,WUHU216HW,2013-02-16 21:52:00,
2013-02-16 13:57:00,66.4,46.2,30.01,SSW,203,0.4,2.0,48,0.00,,,0.00,WUHU216HW,2013-02-16 21:57:00,
2013-02-16 14:02:00,66.6,46.3,30.01,West,270,1.1,2.0,48,0.00,,,0.00,WUHU216HW,2013-02-16 22:02:00,
2013-02-16 14:07:00,66.4,46.2,30.01,WSW,248,1.6,2.0,48,0.00,,,0.00,WUHU216HW,2013-02-16 22:07:00,
2013-02-16 14:12:00,66.2,46.0,30.01,SSW,203,0.9,1.8,48,0.00,,,0.00,WUHU216HW,2013-02-16 22:12:00,
2013-02-16 14:17:00,66.4,45.5,30.01,SW,225,0.0,2.0,47,0.00,,,0.00,WUHU216HW,2013-02-16 22:17:00,
2013-02-16 14:22:00,66.4,45.5,30.00,WSW,248,0.2,2.0,47,0.00,,,0.00,WUHU216HW,2013-02-16 22:22:00,
2013-02-16 14:27:00,66.4,46.2,30.00,WSW,248,1.8,2.5,48,0.00,,,0.00,WUHU216HW,2013-02-16 22:27:00,
2013-02-16 14:32:00,66.4,45.5,30.00,SSW,203,1.8,2.5,47,0.00,,,0.00,WUHU216HW,2013-02-16 22:32:00,
2013-02-16 14:37:00,66.4,45.5,30.00,SSW,203,0.0,2.5,47,0.00,,,0.00,WUHU216HW,2013-02-16 22:37:00,
2013-02-16 14:42:00,66.4,45.5,30.00,West,270,2.5,2.5,47,0.00,,,0.00,WUHU216HW,2013-02-16 22:42:00,
2013-02-16 14:47:00,66.4,45.5,29.99,NW,315,1.1,2.5,47,0.00,,,0.00,WUHU216HW,2013-02-16 22:47:00,
2013-02-16 14:52:00,66.4,45.5,29.99,WSW,248,1.1,2.5,47,0.00,,,0.00,WUHU216HW,2013-02-16 22:52:00,
2013-02-16 14:57:00,66.4,45.5,29.99,West,270,0.7,2.0,47,0.00,,,0.00,WUHU216HW,2013-02-16 22:57:00,
2013-02-16 15:02:00,66.4,45.5,29.99,WSW,248,0.9,2.0,47,0.00,,,0.00,WUHU216HW,2013-02-16 23:02:00,
2013-02-16 15:07:00,66.6,45.7,29.99,SSW,203,0.7,1.6,47,0.00,,,0.00,WUHU216HW,2013-02-16 23:07:00,
2013-02-16 15:12:00,66.6,45.7,29.99,WSW,248,0.0,1.3,47,0.00,,,0.00,WUHU216HW,2013-02-16 23:12:00,
2013-02-16 15:17:00,66.6,45.7,29.98,SSW,203,0.4,1.3,47,0.00,,,0.00,WUHU216HW,2013-02-16 23:17:00,
2013-02-16 15:22:00,66.6,45.7,29.98,SW,225,0.4,1.8,47,0.00,,,0.00,WUHU216HW,2013-02-16 23:22:00,
2013-02-16 15:27:00,66.8,45.9,29.98,SW,225,1.3,1.8,47,0.00,,,0.00,WUHU216HW,2013-02-16 23:27:00,
2013-02-16 15:32:00,66.8,46.4,29.98,SSW,203,0.7,1.6,48,0.00,,,0.00,WUHU216HW,2013-02-16 23:32:00,
2013-02-16 15:37:00,66.8,45.9,29.98,SW,225,1.3,2.0,47,0.00,,,0.00,WUHU216HW,2013-02-16 23:37:00,
2013-02-16 15:42:00,66.8,45.9,29.98,WSW,248,0.7,2.0,47,0.00,,,0.00,WUHU216HW,2013-02-16 23:42:00,
2013-02-16 15:47:00,67.0,46.0,29.98,SSE,158,1.3,2.5,47,0.00,,,0.00,WUHU216HW,2013-02-16 23:47:00,
2013-02-16 15:52:00,67.1,46.2,29.98,SW,225,1.1,2.5,47,0.00,,,0.00,WUHU216HW,2013-02-16 23:52:00,
2013-02-16 15:57:00,67.3,46.4,29.97,WSW,248,1.1,2.5,47,0.00,,,0.00,WUHU216HW,2013-02-16 23:57:00,
2013-02-16 16:02:00,67.3,46.4,29.97,SW,225,2.2,3.4,47,0.00,,,0.00,WUHU216HW,2013-02-17 00:02:00,
2013-02-16 16:07:00,67.5,46.5,29.97,SSW,203,1.6,3.4,47,0.00,,,0.00,WUHU216HW,2013-02-17 00:07:00,
2013-02-16 16:12:00,67.7,46.7,29.97,WSW,248,1.6,2.7,47,0.00,,,0.00,WUHU216HW,2013-02-17 00:12:00,
2013-02-16 16:17:00,67.9,46.3,29.97,SSE,158,0.7,2.5,46,0.00,,,0.00,WUHU216HW,2013-02-17 00:17:00,
2013-02-16 16:22:00,67.9,45.6,29.97,West,270,1.1,2.5,45,0.00,,,0.00,WUHU216HW,2013-02-17 00:22:00,
2013-02-16 16:27:00,67.9,45.6,29.97,WSW,248,0.7,2.5,45,0.00,,,0.00,WUHU216HW,2013-02-17 00:27:00,
2013-02-16 16:32:00,67.9,45.6,29.96,SSW,203,1.1,1.8,45,0.00,,,0.00,WUHU216HW,2013-02-17 00:32:00,
2013-02-16 16:37:00,67.7,45.5,29.96,SSW,203,0.9,1.8,45,0.00,,,0.00,WUHU216HW,2013-02-17 00:37:00,
2013-02-16 16:42:00,67.7,45.5,29.96,ESE,113,1.1,1.6,45,0.00,,,0.00,WUHU216HW,2013-02-17 00:42:00,
2013-02-16 16:47:00,67.7,45.5,29.96,SSE,158,0.7,1.8,45,0.00,,,0.00,WUHU216HW,2013-02-17 00:47:00,
2013-02-16 16:52:00,67.5,45.4,29.96,South,180,0.7,1.8,45,0.00,,,0.00,WUHU216HW,2013-02-17 00:52:00,
2013-02-16 16:57:00,67.5,45.9,29.96,South,180,0.0,1.6,46,0.00,,,0.00,WUHU216HW,2013-02-17 00:57:00,
2013-02-16 17:02:00,67.3,45.7,29.96,South,180,0.0,1.1,46,0.00,,,0.00,WUHU216HW,2013-02-17 01:02:00,
2013-02-16 17:07:00,67.3,45.7,29.96,WSW,248,0.4,1.3,46,0.00,,,0.00,WUHU216HW,2013-02-17 01:07:00,
2013-02-16 17:12:00,67.0,45.5,29.96,WSW,248,0.0,1.3,46,0.00,,,0.00,WUHU216HW,2013-02-17 01:12:00,
2013-02-16 17:17:00,66.6,45.1,29.96,WSW,248,0.0,0.7,46,0.00,,,0.00,WUHU216HW,2013-02-17 01:17:00,
2013-02-16 17:22:00,66.2,45.4,29.96,WSW,248,0.0,0.0,47,0.00,,,0.00,WUHU216HW,2013-02-17 01:22:00,
2013-02-16 17:27:00,65.9,45.0,29.96,WSW,248,0.0,0.0,47,0.00,,,0.00,WUHU216HW,2013-02-17 01:27:00,
2013-02-16 17:32:00,65.3,44.5,29.96,WSW,248,0.0,0.0,47,0.00,,,0.00,WUHU216HW,2013-02-17 01:32:00,
2013-02-16 17:37:00,65.0,44.7,29.96,WSW,248,0.0,0.0,48,0.00,,,0.00,WUHU216HW,2013-02-17 01:37:00,
2013-02-16 17:42:00,64.4,44.2,29.96,WSW,248,0.0,0.0,48,0.00,,,0.00,WUHU216HW,2013-02-17 01:42:00,
2013-02-16 17:47:00,63.9,43.1,29.96,WSW,248,0.0,0.0,47,0.00,,,0.00,WUHU216HW,2013-02-17 01:47:00,
2013-02-16 17:52:00,63.2,43.1,29.96,WSW,248,0.0,0.2,48,0.00,,,0.00,WUHU216HW,2013-02-17 01:52:00,
2013-02-16 17:57:00,62.6,43.2,29.96,WSW,248,0.0,0.2,49,0.00,,,0.00,WUHU216HW,2013-02-17 01:57:00,
2013-02-16 18:02:00,62.3,43.4,29.96,WSW,248,0.0,0.4,50,0.00,,,0.00,WUHU216HW,2013-02-17 02:02:00,
2013-02-16 18:07:00,61.9,43.6,29.96,WSW,248,0.0,0.4,51,0.00,,,0.00,WUHU216HW,2013-02-17 02:07:00,
2013-02-16 18:12:00,61.4,43.1,29.95,WSW,248,0.0,0.0,51,0.00,,,0.00,WUHU216HW,2013-02-17 02:12:00,
2013-02-16 18:17:00,60.8,43.1,29.95,WSW,248,0.0,0.0,52,0.00,,,0.00,WUHU216HW,2013-02-17 02:17:00,
2013-02-16 18:22:00,60.5,42.8,29.95,WSW,248,0.0,0.0,52,0.00,,,0.00,WUHU216HW,2013-02-17 02:22:00,
2013-02-16 18:27:00,60.1,42.9,29.96,WSW,248,0.0,0.0,53,0.00,,,0.00,WUHU216HW,2013-02-17 02:27:00,
2013-02-16 18:32:00,59.8,43.0,29.96,WSW,248,0.0,0.0,54,0.00,,,0.00,WUHU216HW,2013-02-17 02:32:00,
2013-02-16 18:37:00,59.4,42.8,29.96,WSW,248,0.0,0.4,54,0.00,,,0.00,WUHU216HW,2013-02-17 02:37:00,
2013-02-16 18:42:00,59.0,42.8,29.95,WSW,248,0.0,0.4,55,0.00,,,0.00,WUHU216HW,2013-02-17 02:42:00,
2013-02-16 18:47:00,58.7,43.0,29.96,WSW,248,0.0,0.0,56,0.00,,,0.00,WUHU216HW,2013-02-17 02:47:00,
2013-02-16 18:52:00,58.1,42.9,29.96,WSW,248,0.4,0.4,57,0.00,,,0.00,WUHU216HW,2013-02-17 02:52:00,
2013-02-16 18:57:00,57.6,42.5,29.96,WSW,248,0.4,0.7,57,0.00,,,0.00,WUHU216HW,2013-02-17 02:57:00,
2013-02-16 19:02:00,57.2,42.7,29.96,WSW,248,0.2,0.7,58,0.00,,,0.00,WUHU216HW,2013-02-17 03:02:00,
2013-02-16 19:07:00,56.7,42.6,29.96,WSW,248,0.2,0.4,59,0.00,,,0.00,WUHU216HW,2013-02-17 03:07:00,
2013-02-16 19:12:00,56.5,42.8,29.95,WSW,248,0.0,0.4,60,0.00,,,0.00,WUHU216HW,2013-02-17 03:12:00,
2013-02-16 20:02:00,53.8,41.9,29.95,SE,135,0.2,0.2,64,0.00,,,0.00,WUHU216HW,2013-02-17 04:02:00,
2013-02-16 20:07:00,53.6,41.8,29.95,SE,135,0.2,0.2,64,0.00,,,0.00,WUHU216HW,2013-02-17 04:07:00,
2013-02-16 20:12:00,53.5,41.6,29.95,SE,135,0.2,0.4,64,0.00,,,0.00,WUHU216HW,2013-02-17 04:12:00,
2013-02-16 20:17:00,53.3,41.4,29.95,SE,135,0.0,0.7,64,0.00,,,0.00,WUHU216HW,2013-02-17 04:17:00,
2013-02-16 20:22:00,53.1,41.2,29.95,SE,135,0.0,0.7,64,0.00,,,0.00,WUHU216HW,2013-02-17 04:22:00,
2013-02-16 20:27:00,52.7,41.3,29.95,SE,135,0.0,0.7,65,0.00,,,0.00,WUHU216HW,2013-02-17 04:27:00,
2013-02-16 20:32:00,52.4,41.0,29.95,SE,135,0.0,0.7,65,0.00,,,0.00,WUHU216HW,2013-02-17 04:32:00,
2013-02-16 20:37:00,52.2,40.8,29.95,SE,135,0.0,0.4,65,0.00,,,0.00,WUHU216HW,2013-02-17 04:37:00,
2013-02-16 20:42:00,52.0,41.0,29.95,SE,135,0.0,0.0,66,0.00,,,0.00,WUHU216HW,2013-02-17 04:42:00,
2013-02-16 20:47:00,51.8,41.2,29.95,SE,135,0.4,0.4,67,0.00,,,0.00,WUHU216HW,2013-02-17 04:47:00,
2013-02-16 20:52:00,51.5,40.9,29.95,SE,135,0.0,0.4,67,0.00,,,0.00,WUHU216HW,2013-02-17 04:52:00,
2013-02-16 20:57:00,51.3,41.1,29.95,SE,135,0.0,0.4,68,0.00,,,0.00,WUHU216HW,2013-02-17 04:57:00,
2013-02-16 21:00:00,51.1,41.0,29.95,SE,135,0.2,0.4,68,0.00,,,0.00,WUHU216HW,2013-02-17 05:00:00,
2013-02-16 21:05:00,50.8,40.6,29.95,SE,135,0.0,0.4,68,0.00,,,0.00,WUHU216HW,2013-02-17 05:05:00,
2013-02-16 21:10:00,50.4,40.7,29.95,SE,135,0.0,0.4,69,0.00,,,0.00,WUHU216HW,2013-02-17 05:10:00,
2013-02-16 21:15:00,50.0,40.3,29.95,SE,135,0.2,0.4,69,0.00,,,0.00,WUHU216HW,2013-02-17 05:15:00,
2013-02-16 21:20:00,50.0,40.3,29.94,SE,135,0.4,0.7,69,0.00,,,0.00,WUHU216HW,2013-02-17 05:20:00,
2013-02-16 21:25:00,50.0,40.3,29.94,SE,135,0.4,0.9,69,0.00,,,0.00,WUHU216HW,2013-02-17 05:25:00,
2013-02-16 21:30:00,50.0,40.3,29.94,SE,135,0.2,0.9,69,0.00,,,0.00,WUHU216HW,2013-02-17 05:30:00,
2013-02-16 21:35:00,50.0,40.3,29.95,SE,135,0.0,0.9,69,0.00,,,0.00,WUHU216HW,2013-02-17 05:35:00,
2013-02-16 21:40:00,50.0,40.3,29.95,SE,135,0.4,0.4,69,0.00,,,0.00,WUHU216HW,2013-02-17 05:40:00,
2013-02-16 21:45:00,49.9,40.5,29.95,SE,135,0.0,0.4,70,0.00,,,0.00,WUHU216HW,2013-02-17 05:45:00,
2013-02-16 21:50:00,49.7,40.3,29.94,SE,135,0.0,0.4,70,0.00,,,0.00,WUHU216HW,2013-02-17 05:50:00,
2013-02-16 21:55:00,49.5,40.1,29.94,SE,135,0.0,0.2,70,0.00,,,0.00,WUHU216HW,2013-02-17 05:55:00,
2013-02-16 22:00:00,49.5,40.1,29.94,SE,135,0.0,0.0,70,0.00,,,0.00,WUHU216HW,2013-02-17 06:00:00,
2013-02-16 22:05:00,49.5,40.1,29.94,SE,135,0.0,0.0,70,0.00,,,0.00,WUHU216HW,2013-02-17 06:05:00,
2013-02-16 22:10:00,49.3,40.0,29.94,SE,135,0.4,0.4,70,0.00,,,0.00,WUHU216HW,2013-02-17 06:10:00,
2013-02-16 22:15:00,49.1,40.2,29.93,SE,135,0.0,0.4,71,0.00,,,0.00,WUHU216HW,2013-02-17 06:15:00,
2013-02-16 22:20:00,49.0,40.3,29.94,SE,135,0.2,0.4,72,0.00,,,0.00,WUHU216HW,2013-02-17 06:20:00,
2013-02-16 22:25:00,49.0,40.0,29.94,SE,135,0.0,0.2,71,0.00,,,0.00,WUHU216HW,2013-02-17 06:25:00,
2013-02-16 22:30:00,48.8,39.8,29.94,SE,135,0.0,0.2,71,0.00,,,0.00,WUHU216HW,2013-02-17 06:30:00,
2013-02-16 22:35:00,48.6,39.6,29.94,SE,135,0.7,0.7,71,0.00,,,0.00,WUHU216HW,2013-02-17 06:35:00,
2013-02-16 22:40:00,48.4,39.8,29.94,East,90,0.4,0.7,72,0.00,,,0.00,WUHU216HW,2013-02-17 06:40:00,
2013-02-16 22:45:00,48.1,39.1,29.94,East,90,0.0,0.7,71,0.00,,,0.00,WUHU216HW,2013-02-17 06:45:00,
2013-02-16 22:50:00,47.9,39.2,29.93,East,90,0.0,0.4,72,0.00,,,0.00,WUHU216HW,2013-02-17 06:50:00,
2013-02-16 22:55:00,47.9,39.2,29.93,East,90,0.0,0.0,72,0.00,,,0.00,WUHU216HW,2013-02-17 06:55:00,
2013-02-16 23:00:00,47.7,39.1,29.94,East,90,0.0,0.0,72,0.00,,,0.00,WUHU216HW,2013-02-17 07:00:00,
2013-02-16 23:05:00,47.5,38.9,29.93,East,90,0.0,0.0,72,0.00,,,0.00,WUHU216HW,2013-02-17 07:05:00,
2013-02-16 23:10:00,47.3,38.8,29.93,East,90,0.4,0.4,72,0.00,,,0.00,WUHU216HW,2013-02-17 07:10:00,
2013-02-16 23:15:00,47.2,39.0,29.93,East,90,0.0,0.4,73,0.00,,,0.00,WUHU216HW,2013-02-17 07:15:00,
2013-02-16 23:20:00,47.0,38.8,29.93,East,90,0.2,0.4,73,0.00,,,0.00,WUHU216HW,2013-02-17 07:20:00,
2013-02-16 23:25:00,47.0,38.8,29.93,East,90,0.0,0.2,73,0.00,,,0.00,WUHU216HW,2013-02-17 07:25:00,
2013-02-16 23:30:00,47.0,39.2,29.93,East,90,0.0,0.2,74,0.00,,,0.00,WUHU216HW,2013-02-17 07:30:00,
2013-02-16 23:35:00,46.8,39.3,29.92,East,90,0.0,0.4,75,0.00,,,0.00,WUHU216HW,2013-02-17 07:35:00,
2013-02-16 23:40:00,46.8,39.3,29.92,East,90,0.0,0.4,75,0.00,,,0.00,WUHU216HW,2013-02-17 07:40:00,
2013-02-16 23:45:00,46.4,39.7,29.92,East,90,0.2,0.2,77,0.00,,,0.00,WUHU216HW,2013-02-17 07:45:00,
2013-02-16 23:50:00,46.4,39.7,29.92,East,90,0.0,0.2,77,0.00,,,0.00,WUHU216HW,2013-02-17 07:50:00,
2013-02-16 23:55:00,46.3,39.5,29.92,East,90,0.0,0.2,77,0.00,,,0.00,WUHU216HW,2013-02-17 07:55:00,